"read_dt","SO2 (ppb)","flags","PMT voltage (V)","lamp voltage (V)","lamp intensity (Hz)","internal temp (C)","react chamber temp (C)","sample flow (l/min)","pres (mmHg)","SO2 bkg (ppb)","SO2 coefficient"
2016-01-24 00:00:00,1707E-3,5C000400,-0724,0833,12280,024.6,045.3,0.262,752.8,01.17,0.508
2016-01-24 00:01:00,1940E-3,5C000400,-0724,0834,12220,024.6,045.3,0.262,752.9,01.17,0.508
2016-01-24 00:02:00,1747E-3,5C000400,-0724,0834,12233,024.6,045.3,0.262,752.9,01.17,0.508
2016-01-24 00:03:00,1844E-3,5C000400,-0724,0834,12139,024.7,045.3,0.261,753.0,01.17,0.508
2016-01-24 00:04:00,1875E-3,5C000400,-0724,0834,12162,024.7,045.3,0.261,752.9,01.17,0.508
2016-01-24 00:05:00,1801E-3,5C000400,-0724,0833,12092,024.7,045.3,0.261,752.8,01.17,0.508
2016-01-24 00:06:00,1917E-3,5C000400,-0724,0833,12249,024.7,045.4,0.262,752.9,01.17,0.508
2016-01-24 00:07:00,1804E-3,5C000400,-0724,0834,12135,024.6,045.3,0.262,752.9,01.17,0.508
2016-01-24 00:08:00,1744E-3,5C000400,-0724,0834,12103,024.7,045.3,0.262,752.9,01.17,0.508
2016-01-24 00:09:00,1898E-3,5C000400,-0724,0834,12181,024.6,045.3,0.262,752.9,01.17,0.508
2016-01-24 00:10:00,1828E-3,5C000400,-0724,0834,12235,024.6,045.3,0.262,752.9,01.17,0.508
2016-01-24 00:11:00,1813E-3,5C000400,-0724,0833,12127,024.6,045.3,0.262,752.9,01.17,0.508
2016-01-24 00:12:00,1820E-3,5C000400,-0724,0834,12306,024.6,045.3,0.261,753.0,01.17,0.508
2016-01-24 00:13:00,1926E-3,5C000400,-0724,0833,12210,024.6,045.3,0.261,753.0,01.17,0.508
2016-01-24 00:14:00,1886E-3,5C000400,-0724,0834,12173,024.6,045.3,0.261,752.9,01.17,0.508
2016-01-24 00:15:00,1814E-3,5C000400,-0724,0833,12150,024.6,045.3,0.262,753.0,01.17,0.508
2016-01-24 00:16:00,1791E-3,5C000400,-0724,0834,12116,024.6,045.3,0.262,753.0,01.17,0.508
2016-01-24 00:17:00,1885E-3,5C000400,-0724,0833,12080,024.7,045.3,0.262,753.0,01.17,0.508
2016-01-24 00:18:00,1872E-3,5C000400,-0724,0833,12288,024.6,045.3,0.262,753.1,01.17,0.508
2016-01-24 00:19:00,1802E-3,5C000400,-0724,0833,12204,024.7,045.3,0.262,753.0,01.17,0.508
2016-01-24 00:20:00,1859E-3,5C000400,-0724,0833,12193,024.6,045.3,0.262,753.1,01.17,0.508
2016-01-24 00:21:00,1632E-3,5C000400,-0724,0833,11865,024.6,045.3,0.261,753.1,01.17,0.508
2016-01-24 00:22:00,1907E-3,5C000400,-0724,0834,12219,024.6,045.3,0.261,753.0,01.17,0.508
2016-01-24 00:23:00,1782E-3,5C000400,-0724,0833,12007,024.7,045.3,0.261,753.0,01.17,0.508
2016-01-24 00:24:00,1825E-3,5C000400,-0724,0835,12087,024.6,045.3,0.262,753.0,01.17,0.508
2016-01-24 00:25:00,1859E-3,5C000400,-0724,0833,12198,024.6,045.3,0.262,753.0,01.17,0.508
2016-01-24 00:26:00,1928E-3,5C000400,-0724,0833,12330,024.7,045.3,0.262,752.8,01.17,0.508
2016-01-24 00:27:00,1826E-3,5C000400,-0724,0834,12092,024.6,045.3,0.262,752.9,01.17,0.508
2016-01-24 00:28:00,1826E-3,5C000400,-0724,0834,12061,024.6,045.3,0.262,752.8,01.17,0.508
2016-01-24 00:29:00,1754E-3,5C000400,-0724,0834,12180,024.6,045.3,0.262,752.8,01.17,0.508
2016-01-24 00:30:00,1895E-3,5C000400,-0724,0833,12141,024.6,045.3,0.262,752.8,01.17,0.508
2016-01-24 00:31:00,1783E-3,5C000400,-0724,0833,12117,024.6,045.3,0.262,752.6,01.17,0.508
2016-01-24 00:32:00,1846E-3,5C000400,-0724,0833,12000,024.6,045.3,0.262,752.6,01.17,0.508
2016-01-24 00:33:00,1846E-3,5C000400,-0724,0833,12212,024.7,045.3,0.262,752.7,01.17,0.508
2016-01-24 00:34:00,1857E-3,5C000400,-0724,0834,12186,024.6,045.3,0.261,752.5,01.17,0.508
2016-01-24 00:35:00,1804E-3,5C000400,-0724,0834,12155,024.6,045.3,0.261,752.5,01.17,0.508
2016-01-24 00:36:00,1748E-3,5C000400,-0724,0834,12195,024.6,045.3,0.262,752.7,01.17,0.508
2016-01-24 00:37:00,1847E-3,5C000400,-0724,0833,12198,024.6,045.3,0.262,752.5,01.17,0.508
2016-01-24 00:38:00,1794E-3,5C000400,-0724,0833,12136,024.6,045.3,0.262,752.5,01.17,0.508
2016-01-24 00:39:00,1845E-3,5C000400,-0724,0833,12134,024.6,045.3,0.262,752.5,01.17,0.508
2016-01-24 00:40:00,1709E-3,5C000400,-0724,0833,12156,024.6,045.3,0.262,752.6,01.17,0.508
2016-01-24 00:41:00,1774E-3,5C000400,-0724,0833,12249,024.6,045.3,0.262,752.5,01.17,0.508
2016-01-24 00:42:00,1831E-3,5C000400,-0724,0834,12028,024.6,045.3,0.262,752.3,01.17,0.508
2016-01-24 00:43:00,1972E-3,5C000400,-0724,0834,12100,024.6,045.3,0.262,752.5,01.17,0.508
2016-01-24 00:44:00,1794E-3,5C000400,-0724,0833,12206,024.6,045.3,0.262,752.3,01.17,0.508
2016-01-24 00:45:00,1926E-3,5C000400,-0724,0833,12301,024.6,045.3,0.262,752.5,01.17,0.508
2016-01-24 00:46:00,1765E-3,5C000400,-0724,0833,12138,024.6,045.3,0.262,752.5,01.17,0.508
2016-01-24 00:47:00,1933E-3,5C000400,-0724,0834,12208,024.6,045.3,0.261,752.5,01.17,0.508
2016-01-24 00:48:00,1872E-3,5C000400,-0724,0833,12319,024.6,045.3,0.261,752.5,01.17,0.508
2016-01-24 00:49:00,1939E-3,5C000400,-0724,0833,12042,024.6,045.3,0.261,752.5,01.17,0.508
2016-01-24 00:50:00,1684E-3,5C000400,-0724,0834,12109,024.6,045.3,0.262,752.5,01.17,0.508
2016-01-24 00:51:00,1832E-3,5C000400,-0724,0834,12226,024.6,045.3,0.262,752.5,01.17,0.508
2016-01-24 00:52:00,1829E-3,5C000400,-0724,0833,12061,024.6,045.3,0.262,752.3,01.17,0.508
2016-01-24 00:53:00,1873E-3,5C000400,-0724,0833,12275,024.6,045.3,0.262,752.4,01.17,0.508
2016-01-24 00:54:00,1830E-3,5C000400,-0724,0834,12141,024.6,045.3,0.262,752.5,01.17,0.508
2016-01-24 00:55:00,1902E-3,5C000400,-0724,0834,12001,024.6,045.3,0.262,752.3,01.17,0.508
2016-01-24 00:56:00,2023E-3,5C000400,-0724,0833,11992,024.6,045.3,0.262,752.3,01.17,0.508
2016-01-24 00:57:00,1803E-3,5C000400,-0724,0833,12153,024.5,045.3,0.262,752.3,01.17,0.508
2016-01-24 00:58:00,1862E-3,5C000400,-0724,0833,11958,024.6,045.3,0.262,752.1,01.17,0.508
2016-01-24 00:59:00,1922E-3,5C000400,-0724,0834,12178,024.5,045.4,0.262,752.1,01.17,0.508
2016-01-24 01:00:00,1733E-3,5C000400,-0724,0834,12162,024.5,045.3,0.262,752.1,01.17,0.508
2016-01-24 01:01:00,1876E-3,5C000400,-0724,0834,12121,024.5,045.3,0.262,752.0,01.17,0.508
2016-01-24 01:02:00,1842E-3,5C000400,-0724,0834,12214,024.5,045.3,0.262,752.1,01.17,0.508
2016-01-24 01:03:00,1826E-3,5C000400,-0724,0834,12199,024.5,045.3,0.262,752.1,01.17,0.508
2016-01-24 01:04:00,1862E-3,5C000400,-0724,0833,12292,024.5,045.3,0.262,752.0,01.17,0.508
2016-01-24 01:05:00,1978E-3,5C000400,-0724,0834,12144,024.5,045.3,0.262,752.2,01.17,0.508
2016-01-24 01:06:00,1902E-3,5C000400,-0724,0834,12299,024.5,045.3,0.262,752.2,01.17,0.508
2016-01-24 01:07:00,2005E-3,5C000400,-0724,0834,12170,024.5,045.3,0.262,752.3,01.17,0.508
2016-01-24 01:08:00,1794E-3,5C000400,-0724,0834,12162,024.5,045.3,0.262,752.3,01.17,0.508
2016-01-24 01:09:00,1794E-3,5C000400,-0724,0834,12099,024.5,045.3,0.262,752.0,01.17,0.508
2016-01-24 01:10:00,1759E-3,5C000400,-0724,0835,12268,024.5,045.3,0.262,752.0,01.17,0.508
2016-01-24 01:11:00,1808E-3,5C000400,-0724,0834,12085,024.5,045.3,0.262,752.1,01.17,0.508
2016-01-24 01:12:00,1886E-3,5C000400,-0724,0833,12175,024.5,045.3,0.262,752.1,01.17,0.508
2016-01-24 01:13:00,1881E-3,5C000400,-0724,0834,12003,024.5,045.3,0.262,752.1,01.17,0.508
2016-01-24 01:14:00,1927E-3,5C000400,-0724,0835,12228,024.4,045.3,0.262,752.0,01.17,0.508
2016-01-24 01:15:00,1839E-3,5C000400,-0724,0834,12078,024.4,045.3,0.262,752.0,01.17,0.508
2016-01-24 01:16:00,1891E-3,5C000400,-0724,0834,12208,024.4,045.3,0.262,752.1,01.17,0.508
2016-01-24 01:17:00,1745E-3,5C000400,-0724,0834,12153,024.4,045.3,0.262,752.2,01.17,0.508
2016-01-24 01:18:00,1864E-3,5C000400,-0724,0834,12193,024.4,045.3,0.262,752.1,01.17,0.508
2016-01-24 01:19:00,1958E-3,5C000400,-0724,0833,12119,024.4,045.3,0.262,752.1,01.17,0.508
2016-01-24 01:20:00,1820E-3,5C000400,-0724,0833,12088,024.4,045.3,0.262,751.9,01.17,0.508
2016-01-24 01:21:00,1843E-3,5C000400,-0724,0834,12101,024.4,045.3,0.262,751.8,01.17,0.508
2016-01-24 01:22:00,1933E-3,5C000400,-0724,0834,12035,024.4,045.3,0.262,751.8,01.17,0.508
2016-01-24 01:23:00,1804E-3,5C000400,-0724,0833,12252,024.4,045.3,0.262,752.0,01.17,0.508
2016-01-24 01:24:00,1743E-3,5C000400,-0724,0834,12146,024.4,045.3,0.262,751.9,01.17,0.508
2016-01-24 01:25:00,1747E-3,5C000400,-0724,0833,12202,024.4,045.3,0.262,752.0,01.17,0.508
2016-01-24 01:26:00,1816E-3,5C000400,-0724,0833,12133,024.4,045.3,0.262,752.0,01.17,0.508
2016-01-24 01:27:00,1848E-3,5C000400,-0724,0834,12208,024.4,045.3,0.262,752.0,01.17,0.508
2016-01-24 01:28:00,1837E-3,5C000400,-0724,0833,12253,024.4,045.3,0.262,752.0,01.17,0.508
2016-01-24 01:29:00,1897E-3,5C000400,-0724,0833,12011,024.4,045.3,0.262,752.1,01.17,0.508
2016-01-24 01:30:00,1871E-3,5C000400,-0724,0834,12014,024.3,045.3,0.262,752.0,01.17,0.508
2016-01-24 01:31:00,1749E-3,5C000400,-0724,0833,12170,024.4,045.3,0.262,752.2,01.17,0.508
2016-01-24 01:32:00,1723E-3,5C000400,-0724,0833,12243,024.3,045.3,0.262,752.2,01.17,0.508
2016-01-24 01:33:00,1871E-3,5C000400,-0724,0833,12190,024.4,045.3,0.262,752.2,01.17,0.508
2016-01-24 01:34:00,1795E-3,5C000400,-0724,0833,11962,024.3,045.3,0.262,752.2,01.17,0.508
2016-01-24 01:35:00,1868E-3,5C000400,-0724,0833,12174,024.3,045.3,0.262,752.4,01.17,0.508
2016-01-24 01:36:00,1880E-3,5C000400,-0724,0834,12134,024.3,045.3,0.262,752.3,01.17,0.508
2016-01-24 01:37:00,1721E-3,5C000400,-0724,0834,12139,024.3,045.3,0.262,752.5,01.17,0.508
2016-01-24 01:38:00,1906E-3,5C000400,-0724,0834,12084,024.3,045.3,0.262,752.5,01.17,0.508
2016-01-24 01:39:00,1776E-3,5C000400,-0724,0834,12041,024.3,045.3,0.262,752.4,01.17,0.508
2016-01-24 01:40:00,1725E-3,5C000400,-0724,0833,12185,024.3,045.3,0.262,752.5,01.17,0.508
2016-01-24 01:41:00,1851E-3,5C000400,-0724,0834,12193,024.3,045.3,0.262,752.3,01.17,0.508
2016-01-24 01:42:00,1839E-3,5C000400,-0724,0833,12034,024.3,045.3,0.262,752.3,01.17,0.508
2016-01-24 01:43:00,1877E-3,5C000400,-0724,0833,12064,024.3,045.3,0.262,752.4,01.17,0.508
2016-01-24 01:44:00,1786E-3,5C000400,-0724,0834,12241,024.3,045.3,0.262,752.4,01.17,0.508
2016-01-24 01:45:00,1907E-3,5C000400,-0724,0834,12113,024.3,045.3,0.262,752.4,01.17,0.508
2016-01-24 01:46:00,1703E-3,5C000400,-0724,0833,11964,024.3,045.3,0.262,752.5,01.17,0.508
2016-01-24 01:47:00,1815E-3,5C000400,-0724,0834,12105,024.3,045.3,0.262,752.3,01.17,0.508
2016-01-24 01:48:00,1832E-3,5C000400,-0724,0834,12052,024.3,045.3,0.262,752.2,01.17,0.508
2016-01-24 01:49:00,1768E-3,5C000400,-0724,0834,12197,024.3,045.3,0.262,752.1,01.17,0.508
2016-01-24 01:50:00,1941E-3,5C000400,-0724,0833,12147,024.3,045.3,0.262,752.3,01.17,0.508
2016-01-24 01:51:00,1812E-3,5C000400,-0724,0834,12125,024.3,045.3,0.262,752.2,01.17,0.508
2016-01-24 01:52:00,1858E-3,5C000400,-0724,0833,12223,024.3,045.3,0.262,752.1,01.17,0.508
2016-01-24 01:53:00,1913E-3,5C000400,-0724,0834,12214,024.3,045.3,0.262,752.1,01.17,0.508
2016-01-24 01:54:00,1774E-3,5C000400,-0724,0833,12174,024.2,045.3,0.262,752.3,01.17,0.508
2016-01-24 01:55:00,1893E-3,5C000400,-0724,0835,12185,024.2,045.3,0.262,752.0,01.17,0.508
2016-01-24 01:56:00,1743E-3,5C000400,-0724,0834,12133,024.3,045.3,0.262,752.0,01.17,0.508
2016-01-24 01:57:00,1899E-3,5C000400,-0724,0833,12127,024.2,045.3,0.262,752.1,01.17,0.508
2016-01-24 01:58:00,1851E-3,5C000400,-0724,0833,12129,024.2,045.3,0.262,752.0,01.17,0.508
2016-01-24 01:59:00,1699E-3,5C000400,-0724,0834,12132,024.2,045.3,0.262,752.0,01.17,0.508
2016-01-24 02:00:00,1968E-3,5C000400,-0724,0834,12106,024.2,045.3,0.262,752.0,01.17,0.508
2016-01-24 02:01:00,1861E-3,5C000400,-0724,0834,12072,024.2,045.3,0.262,752.0,01.17,0.508
2016-01-24 02:02:00,1880E-3,5C000400,-0724,0834,12217,024.2,045.3,0.262,751.9,01.17,0.508
2016-01-24 02:03:00,1861E-3,5C000400,-0724,0833,12071,024.2,045.3,0.262,751.8,01.17,0.508
2016-01-24 02:04:00,1764E-3,5C000400,-0724,0834,12195,024.2,045.3,0.262,751.9,01.17,0.508
2016-01-24 02:05:00,1827E-3,5C000400,-0724,0833,12086,024.2,045.3,0.262,752.0,01.17,0.508
2016-01-24 02:06:00,1812E-3,5C000400,-0724,0834,12227,024.2,045.3,0.262,752.0,01.17,0.508
2016-01-24 02:07:00,1846E-3,5C000400,-0724,0834,12249,024.2,045.3,0.262,752.0,01.17,0.508
2016-01-24 02:08:00,1867E-3,5C000400,-0724,0833,12080,024.2,045.3,0.262,752.0,01.17,0.508
2016-01-24 02:09:00,1706E-3,5C000400,-0724,0833,12280,024.2,045.3,0.262,752.1,01.17,0.508
2016-01-24 02:10:00,1905E-3,5C000400,-0724,0833,12127,024.2,045.3,0.262,752.0,01.17,0.508
2016-01-24 02:11:00,1821E-3,5C000400,-0724,0833,12156,024.2,045.3,0.262,752.1,01.17,0.508
2016-01-24 02:12:00,1886E-3,5C000400,-0724,0833,12158,024.2,045.3,0.262,752.0,01.17,0.508
2016-01-24 02:13:00,1831E-3,5C000400,-0724,0833,12043,024.2,045.3,0.262,752.1,01.17,0.508
2016-01-24 02:14:00,1882E-3,5C000400,-0724,0833,12022,024.2,045.3,0.262,752.1,01.17,0.508
2016-01-24 02:15:00,1828E-3,5C000400,-0724,0834,12197,024.2,045.3,0.262,752.0,01.17,0.508
2016-01-24 02:16:00,1694E-3,5C000400,-0724,0833,12176,024.2,045.3,0.263,752.1,01.17,0.508
2016-01-24 02:17:00,1739E-3,5C000400,-0724,0833,12314,024.2,045.3,0.263,752.0,01.17,0.508
2016-01-24 02:18:00,1727E-3,5C000400,-0724,0833,12211,024.2,045.3,0.262,752.1,01.17,0.508
2016-01-24 02:19:00,1806E-3,5C000400,-0724,0833,12286,024.2,045.3,0.262,752.0,01.17,0.508
2016-01-24 02:20:00,1821E-3,5C000400,-0724,0834,12246,024.2,045.3,0.262,752.1,01.17,0.508
2016-01-24 02:21:00,1881E-3,5C000400,-0724,0833,12256,024.2,045.3,0.262,752.1,01.17,0.508
2016-01-24 02:22:00,1809E-3,5C000400,-0724,0833,12034,024.2,045.3,0.262,752.1,01.17,0.508
2016-01-24 02:23:00,1852E-3,5C000400,-0724,0833,12196,024.2,045.3,0.262,751.8,01.17,0.508
2016-01-24 02:24:00,1897E-3,5C000400,-0724,0833,12097,024.2,045.3,0.262,752.0,01.17,0.508
2016-01-24 02:25:00,1869E-3,5C000400,-0724,0833,12233,024.2,045.3,0.263,752.0,01.17,0.508
2016-01-24 02:26:00,1739E-3,5C000400,-0724,0833,12236,024.2,045.3,0.262,751.9,01.17,0.508
2016-01-24 02:27:00,1832E-3,5C000400,-0724,0833,12018,024.2,045.3,0.262,752.0,01.17,0.508
2016-01-24 02:28:00,1803E-3,5C000400,-0724,0834,12121,024.2,045.3,0.262,751.6,01.17,0.508
2016-01-24 02:29:00,1890E-3,5C000400,-0724,0833,12154,024.2,045.3,0.262,752.0,01.17,0.508
2016-01-24 02:30:00,1916E-3,5C000400,-0724,0833,12157,024.2,045.3,0.262,752.0,01.17,0.508
2016-01-24 02:31:00,1761E-3,5C000400,-0724,0833,12178,024.1,045.3,0.262,751.8,01.17,0.508
2016-01-24 02:32:00,1776E-3,5C000400,-0724,0832,12130,024.2,045.3,0.262,751.9,01.17,0.508
2016-01-24 02:33:00,1928E-3,5C000400,-0724,0833,12104,024.2,045.3,0.262,751.9,01.17,0.508
2016-01-24 02:34:00,1799E-3,5C000400,-0724,0833,12149,024.2,045.3,0.263,751.8,01.17,0.508
2016-01-24 02:35:00,1858E-3,5C000400,-0724,0833,12162,024.1,045.3,0.263,751.9,01.17,0.508
2016-01-24 02:36:00,1924E-3,5C000400,-0724,0833,12330,024.1,045.3,0.262,752.0,01.17,0.508
2016-01-24 02:37:00,1726E-3,5C000400,-0724,0833,12040,024.1,045.3,0.262,751.9,01.17,0.508
2016-01-24 02:38:00,1830E-3,5C000400,-0724,0834,12089,024.1,045.3,0.262,752.0,01.17,0.508
2016-01-24 02:39:00,1733E-3,5C000400,-0724,0834,12216,024.1,045.3,0.262,751.9,01.17,0.508
2016-01-24 02:40:00,1719E-3,5C000400,-0724,0833,12128,024.1,045.3,0.262,752.0,01.17,0.508
2016-01-24 02:41:00,1807E-3,5C000400,-0724,0834,12085,024.1,045.3,0.262,751.9,01.17,0.508
2016-01-24 02:42:00,1837E-3,5C000400,-0724,0834,12145,024.2,045.3,0.262,751.9,01.17,0.508
2016-01-24 02:43:00,1897E-3,5C000400,-0724,0833,12187,024.1,045.3,0.262,751.9,01.17,0.508
2016-01-24 02:44:00,1791E-3,5C000400,-0724,0833,12253,024.2,045.3,0.262,752.0,01.17,0.508
2016-01-24 02:45:00,1798E-3,5C000400,-0724,0833,12236,024.1,045.3,0.262,751.8,01.17,0.508
2016-01-24 02:46:00,1862E-3,5C000400,-0724,0834,12094,024.1,045.3,0.262,751.9,01.17,0.508
2016-01-24 02:47:00,1655E-3,5C000400,-0724,0833,12220,024.1,045.3,0.263,752.0,01.17,0.508
2016-01-24 02:48:00,1789E-3,5C000400,-0724,0833,11947,024.1,045.3,0.262,751.9,01.17,0.508
2016-01-24 02:49:00,1889E-3,5C000400,-0724,0833,12255,024.1,045.3,0.263,751.9,01.17,0.508
2016-01-24 02:50:00,1896E-3,5C000400,-0724,0834,12149,024.1,045.3,0.262,751.7,01.17,0.508
2016-01-24 02:51:00,1820E-3,5C000400,-0724,0833,12058,024.1,045.3,0.263,751.7,01.17,0.508
2016-01-24 02:52:00,1848E-3,5C000400,-0724,0834,12190,024.1,045.3,0.263,751.9,01.17,0.508
2016-01-24 02:53:00,1825E-3,5C000400,-0724,0833,12234,024.1,045.3,0.263,751.8,01.17,0.508
2016-01-24 02:54:00,1855E-3,5C000400,-0724,0834,12173,024.1,045.3,0.263,751.6,01.17,0.508
2016-01-24 02:55:00,1854E-3,5C000400,-0724,0834,12170,024.1,045.3,0.262,751.8,01.17,0.508
2016-01-24 02:56:00,1736E-3,5C000400,-0724,0834,12162,024.1,045.3,0.262,751.8,01.17,0.508
2016-01-24 02:57:00,1921E-3,5C000400,-0724,0835,12210,024.1,045.3,0.262,751.8,01.17,0.508
2016-01-24 02:58:00,1771E-3,5C000400,-0724,0834,12160,024.1,045.3,0.262,751.7,01.17,0.508
2016-01-24 02:59:00,1801E-3,5C000400,-0724,0834,12189,024.1,045.3,0.263,751.8,01.17,0.508
2016-01-24 03:00:00,1807E-3,5C000400,-0724,0834,12193,024.1,045.3,0.262,751.7,01.17,0.508
2016-01-24 03:01:00,1774E-3,5C000400,-0724,0833,12252,024.1,045.3,0.262,751.9,01.17,0.508
2016-01-24 03:02:00,1778E-3,5C000400,-0724,0834,12126,024.1,045.3,0.262,751.9,01.17,0.508
2016-01-24 03:03:00,1834E-3,5C000400,-0724,0834,12163,024.1,045.3,0.262,751.6,01.17,0.508
2016-01-24 03:04:00,1817E-3,5C000400,-0724,0834,12154,024.1,045.3,0.262,751.7,01.17,0.508
2016-01-24 03:05:00,1778E-3,5C000400,-0724,0834,12086,024.1,045.3,0.262,751.7,01.17,0.508
2016-01-24 03:06:00,1740E-3,5C000400,-0724,0833,12070,024.1,045.3,0.262,751.8,01.17,0.508
2016-01-24 03:07:00,1867E-3,5C000400,-0724,0834,12210,024.0,045.3,0.263,751.7,01.17,0.508
2016-01-24 03:08:00,1842E-3,5C000400,-0724,0833,12180,024.1,045.3,0.263,751.7,01.17,0.508
2016-01-24 03:09:00,1762E-3,5C000400,-0724,0834,12275,024.1,045.3,0.262,751.5,01.17,0.508
2016-01-24 03:10:00,1805E-3,5C000400,-0724,0834,12304,024.1,045.3,0.263,751.7,01.17,0.508
2016-01-24 03:11:00,1823E-3,5C000400,-0724,0833,12137,024.1,045.3,0.263,751.6,01.17,0.508
2016-01-24 03:12:00,1730E-3,5C000400,-0724,0833,12051,024.0,045.3,0.263,751.3,01.17,0.508
2016-01-24 03:13:00,1832E-3,5C000400,-0724,0833,12062,024.0,045.3,0.263,751.5,01.17,0.508
2016-01-24 03:14:00,1734E-3,5C000400,-0724,0833,12210,024.0,045.3,0.263,751.5,01.17,0.508
2016-01-24 03:15:00,1890E-3,5C000400,-0724,0833,12162,024.1,045.3,0.263,751.6,01.17,0.508
2016-01-24 03:16:00,1818E-3,5C000400,-0724,0833,12007,024.0,045.3,0.263,751.6,01.17,0.508
2016-01-24 03:17:00,1788E-3,5C000400,-0724,0834,12108,024.0,045.3,0.262,751.7,01.17,0.508
2016-01-24 03:18:00,1833E-3,5C000400,-0724,0833,12136,024.0,045.3,0.262,751.7,01.17,0.508
2016-01-24 03:19:00,1852E-3,5C000400,-0724,0833,12111,024.0,045.3,0.263,751.6,01.17,0.508
2016-01-24 03:20:00,1726E-3,5C000400,-0724,0833,12119,024.0,045.3,0.262,751.7,01.17,0.508
2016-01-24 03:21:00,1812E-3,5C000400,-0724,0833,12191,024.1,045.3,0.262,751.4,01.17,0.508
2016-01-24 03:22:00,1842E-3,5C000400,-0724,0833,12109,024.0,045.3,0.262,751.4,01.17,0.508
2016-01-24 03:23:00,1841E-3,5C000400,-0724,0833,12153,024.0,045.3,0.262,751.6,01.17,0.508
2016-01-24 03:24:00,1913E-3,5C000400,-0724,0833,12147,024.0,045.3,0.262,751.5,01.17,0.508
2016-01-24 03:25:00,1920E-3,5C000400,-0724,0833,12031,024.0,045.3,0.262,751.3,01.17,0.508
2016-01-24 03:26:00,1796E-3,5C000400,-0724,0834,12158,024.0,045.3,0.263,751.5,01.17,0.508
2016-01-24 03:27:00,1738E-3,5C000400,-0724,0833,12071,024.0,045.3,0.263,751.6,01.17,0.508
2016-01-24 03:28:00,1705E-3,5C000400,-0724,0833,12126,024.0,045.3,0.263,751.4,01.17,0.508
2016-01-24 03:29:00,1773E-3,5C000400,-0724,0833,12190,024.0,045.3,0.263,751.1,01.17,0.508
2016-01-24 03:30:00,1725E-3,5C000400,-0724,0834,12210,024.0,045.3,0.263,751.2,01.17,0.508
2016-01-24 03:31:00,1874E-3,5C000400,-0724,0833,12324,024.0,045.3,0.263,751.2,01.17,0.508
2016-01-24 03:32:00,1905E-3,5C000400,-0724,0834,12258,024.0,045.3,0.262,751.4,01.17,0.508
2016-01-24 03:33:00,1776E-3,5C000400,-0724,0833,12110,024.0,045.3,0.262,751.3,01.17,0.508
2016-01-24 03:34:00,1812E-3,5C000400,-0724,0834,12144,024.0,045.3,0.262,751.3,01.17,0.508
2016-01-24 03:35:00,1976E-3,5C000400,-0724,0834,12127,024.0,045.3,0.262,751.2,01.17,0.508
2016-01-24 03:36:00,1872E-3,5C000400,-0724,0833,12116,024.0,045.3,0.262,751.4,01.17,0.508
2016-01-24 03:37:00,1807E-3,5C000400,-0724,0833,12120,024.0,045.3,0.263,751.2,01.17,0.508
2016-01-24 03:38:00,1789E-3,5C000400,-0724,0834,12185,024.0,045.3,0.263,751.2,01.17,0.508
2016-01-24 03:39:00,1879E-3,5C000400,-0724,0834,12107,024.0,045.3,0.263,751.4,01.17,0.508
2016-01-24 03:40:00,1799E-3,5C000400,-0724,0833,11999,023.9,045.3,0.263,751.4,01.17,0.508
2016-01-24 03:41:00,1810E-3,5C000400,-0724,0833,12204,024.0,045.3,0.263,751.3,01.17,0.508
2016-01-24 03:42:00,1970E-3,5C000400,-0724,0833,12266,024.0,045.3,0.263,751.4,01.17,0.508
2016-01-24 03:43:00,1934E-3,5C000400,-0724,0833,12243,024.0,045.3,0.263,751.4,01.17,0.508
2016-01-24 03:44:00,1710E-3,5C000400,-0724,0833,12146,024.0,045.3,0.263,751.5,01.17,0.508
2016-01-24 03:45:00,1881E-3,5C000400,-0724,0833,12144,023.9,045.3,0.262,751.2,01.17,0.508
2016-01-24 03:46:00,1826E-3,5C000400,-0724,0833,12030,023.9,045.3,0.263,751.1,01.17,0.508
2016-01-24 03:47:00,1874E-3,5C000400,-0724,0834,12140,024.0,045.3,0.263,751.5,01.17,0.508
2016-01-24 03:48:00,1824E-3,5C000400,-0724,0834,12138,023.9,045.3,0.263,751.3,01.17,0.508
2016-01-24 03:49:00,1842E-3,5C000400,-0724,0833,12165,024.0,045.3,0.263,751.4,01.17,0.508
2016-01-24 03:50:00,1816E-3,5C000400,-0724,0834,12255,023.9,045.3,0.263,751.5,01.17,0.508
2016-01-24 03:51:00,1955E-3,5C000400,-0724,0833,12118,023.9,045.3,0.263,751.5,01.17,0.508
2016-01-24 03:52:00,1878E-3,5C000400,-0724,0834,12197,023.9,045.3,0.263,751.5,01.17,0.508
2016-01-24 03:53:00,1933E-3,5C000400,-0724,0834,12204,024.0,045.3,0.262,751.5,01.17,0.508
2016-01-24 03:54:00,1892E-3,5C000400,-0724,0834,12080,023.9,045.3,0.262,751.5,01.17,0.508
2016-01-24 03:55:00,1735E-3,5C000400,-0724,0834,12227,023.9,045.3,0.263,751.4,01.17,0.508
2016-01-24 03:56:00,1827E-3,5C000400,-0724,0834,12180,023.9,045.3,0.263,751.2,01.17,0.508
2016-01-24 03:57:00,1791E-3,5C000400,-0724,0835,12062,024.0,045.3,0.263,751.4,01.17,0.508
2016-01-24 03:58:00,1821E-3,5C000400,-0724,0833,12169,024.0,045.3,0.263,751.4,01.17,0.508
2016-01-24 03:59:00,1726E-3,5C000400,-0724,0833,12214,023.9,045.3,0.263,751.5,01.17,0.508
2016-01-24 04:00:00,1781E-3,5C000400,-0724,0833,12292,023.9,045.3,0.263,751.4,01.17,0.508
2016-01-24 04:01:00,1860E-3,5C000400,-0724,0834,12151,023.9,045.3,0.263,751.4,01.17,0.508
2016-01-24 04:02:00,1793E-3,5C000400,-0724,0834,12026,024.0,045.3,0.262,751.5,01.17,0.508
2016-01-24 04:03:00,1824E-3,5C000400,-0724,0834,12105,023.9,045.3,0.263,751.4,01.17,0.508
2016-01-24 04:04:00,1866E-3,5C000400,-0724,0834,12140,023.9,045.3,0.263,751.5,01.17,0.508
2016-01-24 04:05:00,1896E-3,5C000400,-0724,0833,12138,023.9,045.3,0.263,751.4,01.17,0.508
2016-01-24 04:06:00,1790E-3,5C000400,-0724,0834,12120,024.0,045.3,0.263,751.5,01.17,0.508
2016-01-24 04:07:00,1924E-3,5C000400,-0724,0834,12055,024.0,045.3,0.263,751.5,01.17,0.508
2016-01-24 04:08:00,1786E-3,5C000400,-0724,0833,12188,023.9,045.3,0.263,751.5,01.17,0.508
2016-01-24 04:09:00,1943E-3,5C000400,-0724,0833,12190,024.0,045.3,0.262,751.4,01.17,0.508
2016-01-24 04:10:00,1760E-3,5C000400,-0724,0835,12055,023.9,045.3,0.262,751.4,01.17,0.508
2016-01-24 04:11:00,2022E-3,5C000400,-0724,0834,12322,023.9,045.3,0.263,751.3,01.17,0.508
2016-01-24 04:12:00,1793E-3,5C000400,-0724,0833,12196,023.9,045.3,0.263,751.3,01.17,0.508
2016-01-24 04:13:00,1970E-3,5C000400,-0724,0833,12236,024.0,045.3,0.263,751.3,01.17,0.508
2016-01-24 04:14:00,1776E-3,5C000400,-0724,0834,12099,024.0,045.3,0.263,751.2,01.17,0.508
2016-01-24 04:15:00,1927E-3,5C000400,-0724,0833,12132,024.0,045.3,0.262,751.3,01.17,0.508
2016-01-24 04:16:00,1815E-3,5C000400,-0724,0833,12138,024.0,045.3,0.262,751.3,01.17,0.508
2016-01-24 04:17:00,1737E-3,5C000400,-0724,0833,12047,024.0,045.3,0.263,751.4,01.17,0.508
2016-01-24 04:18:00,1687E-3,5C000400,-0724,0834,12238,023.9,045.3,0.263,751.4,01.17,0.508
2016-01-24 04:19:00,1774E-3,5C000400,-0724,0834,12220,023.9,045.3,0.263,751.4,01.17,0.508
2016-01-24 04:20:00,1704E-3,5C000400,-0724,0834,12239,023.9,045.3,0.263,751.5,01.17,0.508